Tiempo cada hora Abodim

Hoy, 26 Octubre, Lunes

Tiempo Temperatura Precipitaciones Viento Presión Humedad
00:00 +4°C° 0 mm 3 mps 743 mmHg 92%
01:00 +4°C° 0 mm 3 mps 744 mmHg 93%
02:00 +4°C° 0 mm 3 mps 745 mmHg 94%
03:00 +4°C° 0 mm 3 mps 745 mmHg 95%
04:00 +3°C° 0 mm 3 mps 746 mmHg 95%
05:00 +3°C° 0 mm 3 mps 746 mmHg 94%
06:00 +4°C° 0 mm 2 mps 746 mmHg 93%
07:00 +3°C° 0 mm 3 mps 746 mmHg 88%
08:00 +4°C° 0 mm 3 mps 747 mmHg 82%
09:00 +4°C° 0 mm 3 mps 747 mmHg 77%
10:00 +7°C° 0 mm 3 mps 747 mmHg 72%
11:00 +8°C° 0 mm 3 mps 747 mmHg 68%
12:00 +8°C° 0 mm 4 mps 747 mmHg 64%
13:00 +8°C° 0 mm 4 mps 747 mmHg 64%
14:00 +9°C° 0 mm 5 mps 747 mmHg 64%
15:00 +9°C° 0 mm 5 mps 747 mmHg 65%
16:00 +8°C° 0 mm 4 mps 748 mmHg 71%
17:00 +7°C° 0 mm 4 mps 748 mmHg 77%
18:00 +7°C° 0 mm 3 mps 748 mmHg 83%
19:00 +7°C° 0 mm 3 mps 749 mmHg 82%
20:00 +5°C° 0 mm 3 mps 749 mmHg 81%
21:00 +4°C° 0 mm 3 mps 750 mmHg 81%
22:00 +4°C° 0 mm 3 mps 750 mmHg 82%
23:00 +3°C° 0 mm 3 mps 750 mmHg 83%

Mañana, 27 Octubre, Martes

Tiempo Temperatura Precipitaciones Viento Presión Humedad
00:00 +3°C° 0 mm 2 mps 750 mmHg 84%
01:00 +2°C° 0 mm 2 mps 751 mmHg 84%
02:00 +2°C° 0 mm 2 mps 751 mmHg 84%
03:00 +1°C° 0 mm 2 mps 751 mmHg 84%
04:00 +1°C° 0 mm 2 mps 752 mmHg 85%
05:00 -1°C° 0 mm 2 mps 752 mmHg 86%
06:00 -1°C° 0 mm 2 mps 753 mmHg 87%
07:00 +1°C° 0 mm 2 mps 753 mmHg 82%
08:00 +1°C° 0 mm 2 mps 753 mmHg 78%
09:00 +2°C° 0 mm 2 mps 754 mmHg 74%
10:00 +3°C° 0 mm 2 mps 754 mmHg 67%
11:00 +4°C° 0 mm 2 mps 754 mmHg 61%
12:00 +5°C° 0 mm 2 mps 754 mmHg 55%
13:00 +6°C° 0 mm 1 mps 754 mmHg 53%
14:00 +7°C° 0 mm 1 mps 754 mmHg 51%
15:00 +7°C° 0 mm 1 mps 754 mmHg 49%
16:00 +6°C° 0 mm 1 mps 754 mmHg 52%
17:00 +5°C° 0 mm 1 mps 754 mmHg 56%
18:00 +3°C° 0 mm 2 mps 755 mmHg 60%
19:00 +3°C° 0 mm 2 mps 755 mmHg 61%
20:00 +2°C° 0 mm 2 mps 755 mmHg 62%
21:00 +2°C° 0 mm 2 mps 755 mmHg 64%
22:00 +2°C° 0 mm 2 mps 755 mmHg 64%
23:00 +1°C° 0 mm 2 mps 755 mmHg 64%

Pasado mañana, 28 Octubre, Miércoles

Tiempo Temperatura Precipitaciones Viento Presión Humedad
00:00 +1°C° 0 mm 2 mps 756 mmHg 65%
01:00 +1°C° 0 mm 2 mps 756 mmHg 65%
02:00 -1°C° 0 mm 2 mps 756 mmHg 65%
03:00 -1°C° 0 mm 2 mps 756 mmHg 65%
04:00 -1°C° 0 mm 2 mps 756 mmHg 66%
05:00 -1°C° 0 mm 2 mps 756 mmHg 66%
06:00 -2°C° 0 mm 2 mps 756 mmHg 67%
07:00 -1°C° 0 mm 2 mps 756 mmHg 64%
08:00 +1°C° 0 mm 2 mps 757 mmHg 61%
09:00 +2°C° 0 mm 2 mps 757 mmHg 58%
10:00 +3°C° 0 mm 2 mps 757 mmHg 53%
11:00 +3°C° 0 mm 3 mps 757 mmHg 48%
12:00 +5°C° 0 mm 3 mps 757 mmHg 43%
13:00 +5°C° 0 mm 3 mps 757 mmHg 42%
14:00 +5°C° 0 mm 3 mps 756 mmHg 41%
15:00 +7°C° 0 mm 3 mps 756 mmHg 40%
16:00 +4°C° 0 mm 3 mps 756 mmHg 44%
17:00 +3°C° 0 mm 3 mps 756 mmHg 48%
18:00 +2°C° 0 mm 3 mps 756 mmHg 52%
19:00 +1°C° 0 mm 3 mps 756 mmHg 53%
20:00 +1°C° 0 mm 3 mps 756 mmHg 54%
21:00 0°C° 0 mm 3 mps 756 mmHg 55%
22:00 0°C° 0 mm 3 mps 756 mmHg 58%
23:00 0°C° 0 mm 3 mps 756 mmHg 61%

29 Octubre, Jueves

Tiempo Temperatura Precipitaciones Viento Presión Humedad
00:00 0°C° 0 mm 3 mps 757 mmHg 63%
01:00 -1°C° 0 mm 3 mps 756 mmHg 65%
02:00 -1°C° 0 mm 3 mps 756 mmHg 67%
03:00 -1°C° 0 mm 3 mps 756 mmHg 69%
04:00 -1°C° 0 mm 3 mps 756 mmHg 70%
05:00 -1°C° 0 mm 3 mps 756 mmHg 71%
06:00 -2°C° 0 mm 3 mps 756 mmHg 73%
07:00 -2°C° 0 mm 4 mps 756 mmHg 69%
08:00 -1°C° 0 mm 4 mps 756 mmHg 65%
09:00 0°C° 0 mm 5 mps 756 mmHg 61%
10:00 +2°C° 0 mm 5 mps 756 mmHg 56%
11:00 +3°C° 0 mm 5 mps 756 mmHg 52%
12:00 +5°C° 0 mm 5 mps 756 mmHg 47%
13:00 +6°C° 0 mm 5 mps 756 mmHg 46%
14:00 +6°C° 0 mm 5 mps 755 mmHg 45%
15:00 +6°C° 0 mm 5 mps 755 mmHg 44%
16:00 +5°C° 0 mm 5 mps 755 mmHg 47%
17:00 +3°C° 0 mm 5 mps 755 mmHg 51%
18:00 +3°C° 0 mm 4 mps 754 mmHg 55%
19:00 +2°C° 0 mm 5 mps 754 mmHg 55%
20:00 +2°C° 0 mm 5 mps 754 mmHg 56%
21:00 +1°C° 0 mm 5 mps 754 mmHg 57%
22:00 +1°C° 0 mm 5 mps 754 mmHg 57%
23:00 +1°C° 0 mm 5 mps 754 mmHg 58%

30 Octubre, Viernes

Tiempo Temperatura Precipitaciones Viento Presión Humedad
00:00 +1°C° 0 mm 5 mps 754 mmHg 59%
01:00 +1°C° 0 mm 5 mps 754 mmHg 60%
02:00 +1°C° 0 mm 5 mps 753 mmHg 60%
03:00 0°C° 0 mm 5 mps 753 mmHg 61%
04:00 0°C° 0 mm 5 mps 753 mmHg 62%
05:00 0°C° 0 mm 5 mps 753 mmHg 63%
06:00 0°C° 0 mm 5 mps 752 mmHg 63%
07:00 +1°C° 0 mm 5 mps 752 mmHg 62%
08:00 +1°C° 0 mm 5 mps 752 mmHg 60%
09:00 +2°C° 0 mm 6 mps 752 mmHg 58%
10:00 +3°C° 0 mm 6 mps 752 mmHg 55%
11:00 +4°C° 0 mm 6 mps 752 mmHg 52%
12:00 +5°C° 0 mm 6 mps 752 mmHg 49%
13:00 +5°C° 0 mm 6 mps 751 mmHg 50%
14:00 +5°C° 0 mm 6 mps 751 mmHg 50%
15:00 +5°C° 0 mm 6 mps 751 mmHg 51%
16:00 +6°C° 0 mm 5 mps 751 mmHg 53%
17:00 +6°C° 0 mm 5 mps 751 mmHg 56%
18:00 +6°C° 0 mm 5 mps 751 mmHg 58%
19:00 +5°C° 0 mm 5 mps 750 mmHg 60%
20:00 +5°C° 0 mm 4 mps 750 mmHg 63%
21:00 +4°C° 0 mm 4 mps 750 mmHg 66%
22:00 +4°C° 0 mm 4 mps 750 mmHg 65%
23:00 +4°C° 0 mm 4 mps 750 mmHg 65%

31 Octubre, Sábado

Tiempo Temperatura Precipitaciones Viento Presión Humedad
00:00 +4°C° 0 mm 3 mps 750 mmHg 65%
01:00 +3°C° 0 mm 3 mps 749 mmHg 63%
02:00 +3°C° 0 mm 3 mps 749 mmHg 61%
03:00 +3°C° 0 mm 3 mps 749 mmHg 60%
04:00 +2°C° 0 mm 3 mps 749 mmHg 59%
05:00 +2°C° 0 mm 3 mps 749 mmHg 59%
06:00 +1°C° 0 mm 3 mps 749 mmHg 59%
07:00 +2°C° 0 mm 3 mps 749 mmHg 57%
08:00 +3°C° 0 mm 3 mps 749 mmHg 55%
09:00 +3°C° 0 mm 3 mps 749 mmHg 53%
Mostrar más

Necesitamos Su Consentimiento

Meteoprog y nuestros Proveedores de Servicios pueden almacenar y acceder a sus datos personales como cookies, identificadores de dispositivo u otras tecnologías similares de su dispositivo y procesar dichos datos para personalizar contenido y anuncios, además de ofrecer funciones de redes sociales y analizar el tráfico.

  • Almacenar y/o acceder a información en su dispositivo

    Se puede almacenar o acceder a cookies, identificadores de dispositivo u otra información de su dispositivo para los fines anteriormente indicados.

  • Anuncios y contenido personalizados, medición de anuncios y contenido, percepciones del público, y desarrollo de productos

    Los anuncios y el contenido pueden personalizarse en base a su perfil. Se pueden añadir más datos para personalizar mejor los anuncios y contenidos. Se puede medir el rendimiento de los anuncios y contenidos. Se puede obtener la percepción sobre el público que ha visto los anuncios y contenidos. Dichos datos pueden usarse para desarrollar o mejorar la experiencia del usuario, sistemas y software.

Al hacer clic en ‘Estoy De Acuerdo’ usted permitirá el uso de las cookies, identificadores de dispositivo, balizas web u otras tecnologías similares indicadas. Su configuración puede cambiarse desde el navegador de su dispositivo.

Para ciertos fines, los intereses legítimos pueden ser considerados por encima del consentimiento. Puede leer más sobre ello en nuestra Política de Privacidad y Cookies.